QPF
0.00 0.00 0.00 0.00 0.00 0.00 0.00 0.00 0.00 0.00 0.00 0.00 0.00 0.00 0.00 0.00 0.00 0.00 0.00 0.00 0.00 0.00 0.00 0.01 0.02 0.02 0.01 0.01 0.01 0.03 0.04 0.02 0.03 0.02 0.02 0.01 0.01 0.00 0.00 0.00 0.00 0.01 0.01 0.01 0.01 0.01 0.00 0.00 0.00
0.00 0.00 0.00 0.00 0.00 0.00 0.00 0.00 0.00 0.00 0.00 0.00 0.00 0.00 0.00 0.00 0.00 0.00 0.00 0.00 0.00 0.00 0.00 0.00 0.01 0.01 0.01 0.01 0.01 0.03 0.03 0.02 0.02 0.02 0.01 0.01 0.01 0.00 0.00 0.00 0.00 0.01 0.01 0.01 0.01 0.01 0.00 0.00 0.00
0.00 0.00 0.00 0.00 0.00 0.00 0.00 0.00 0.00 0.00 0.00 0.00 0.00 0.00 0.00 0.00 0.00 0.00 0.00 0.00 0.00 0.00 0.00 0.00 0.00 0.01 0.00 0.00 0.01 0.02 0.02 0.02 0.02 0.02 0.01 0.01 0.01 0.00 0.00 0.00 0.00 0.01 0.01 0.01 0.01 0.01 0.00 0.00 0.00
0.00 0.00 0.00 0.00 0.00 0.00 0.00 0.00 0.00 0.00 0.00 0.00 0.00 0.00 0.00 0.00 0.00 0.00 0.00 0.00 0.00 0.00 0.00 0.00 0.00 0.00 0.00 0.01 0.01 0.01 0.01 0.01 0.02 0.04 0.02 0.01 0.01 0.00 0.00 0.00 0.00 0.00 0.01 0.01 0.00 0.00 0.00 0.00 0.00
0.00 0.00 0.00 0.00 0.00 0.00 0.00 0.00 0.00 0.00 0.00 0.00 0.00 0.00 0.00 0.00 0.00 0.00 0.00 0.00 0.00 0.00 0.00 0.00 0.00 0.00 0.00 0.01 0.01 0.01 0.01 0.01 0.01 0.02 0.01 0.01 0.01 0.00 0.00 0.00 0.00 0.00 0.00 0.00 0.00 0.00 0.00 0.00 0.00
0.00 0.00 0.00 0.00 0.00 0.00 0.00 0.00 0.00 0.00 0.00 0.00 0.00 0.00 0.00 0.00 0.00 0.00 0.00 0.00 0.00 0.00 0.00 0.00 0.00 0.00 0.00 0.01 0.01 0.01 0.01 0.01 0.01 0.01 0.01 0.00 0.00 0.00 0.00 0.00 0.00 0.00 0.00 0.00 0.00 0.00 0.00 0.00 0.00
0.00 0.00 0.00 0.00 0.00 0.00 0.00 0.00 0.00 0.00 0.00 0.00 0.00 0.00 0.00 0.00 0.00 0.00 0.00 0.00 0.00 0.00 0.00 0.00 0.00 0.00 0.00 0.00 0.01 0.01 0.01 0.01 0.01 0.01 0.00 0.00 0.00 0.00 0.00 0.00 0.00 0.00 0.00 0.00 0.00 0.00 0.00 0.00 0.00
0.01 0.01 0.00 0.00 0.00 0.00 0.00 0.00 0.00 0.00 0.00 0.00 0.00 0.00 0.00 0.00 0.00 0.00 0.00 0.00 0.00 0.00 0.00 0.00 0.00 0.00 0.00 0.00 0.00 0.00 0.00 0.01 0.01 0.00 0.00 0.00 0.00 0.00 0.00 0.00 0.00 0.00 0.00 0.00 0.00 0.00 0.00 0.00 0.00
0.03 0.02 0.01 0.00 0.00 0.00 0.00 0.00 0.00 0.00 0.00 0.00 0.00 0.00 0.00 0.00 0.00 0.00 0.00 0.00 0.01 0.00 0.00 0.00 0.00 0.00 0.00 0.00 0.00 0.00 0.00 0.00 0.00 0.00 0.00 0.00 0.00 0.00 0.00 0.00 0.00 0.00 0.00 0.00 0.00 0.00 0.00 0.00 0.00
0.03 0.02 0.01 0.00 0.00 0.00 0.00 0.00 0.00 0.00 0.00 0.00 0.00 0.00 0.00 0.00 0.00 0.00 0.00 0.00 0.00 0.01 0.00 0.00 0.00 0.00 0.00 0.00 0.00 0.00 0.00 0.00 0.00 0.00 0.00 0.00 0.00 0.00 0.00 0.00 0.00 0.00 0.00 0.00 0.00 0.00 0.00 0.00 0.00
0.02 0.02 0.01 0.00 0.00 0.00 0.00 0.00 0.00 0.00 0.00 0.00 0.00 0.00 0.00 0.00 0.00 0.00 0.00 0.00 0.00 0.00 0.00 0.00 0.00 0.00 0.00 0.00 0.00 0.00 0.00 0.00 0.00 0.00 0.00 0.00 0.00 0.00 0.00 0.00 0.00 0.00 0.00 0.00 0.00 0.00 0.00 0.00 0.00
0.01 0.00 0.00 0.00 0.00 0.00 0.00 0.00 0.00 0.00 0.00 0.00 0.00 0.00 0.00 0.00 0.00 0.00 0.00 0.00 0.00 0.00 0.00 0.00 0.00 0.00 0.00 0.00 0.00 0.00 0.00 0.00 0.00 0.00 0.00 0.00 0.00 0.00 0.00 0.00 0.00 0.00 0.00 0.00 0.00 0.00 0.00 0.00 0.00
0.02 0.01 0.00 0.00 0.00 0.00 0.00 0.00 0.00 0.00 0.00 0.00 0.00 0.00 0.00 0.00 0.00 0.00 0.00 0.00 0.00 0.00 0.00 0.00 0.00 0.00 0.00 0.00 0.00 0.00 0.00 0.00 0.00 0.00 0.00 0.00 0.00 0.00 0.00 0.00 0.00 0.00 0.00 0.00 0.00 0.00 0.00 0.00 0.00
0.03 0.01 0.01 0.00 0.00 0.00 0.00 0.00 0.00 0.00 0.00 0.00 0.00 0.00 0.00 0.00 0.00 0.00 0.00 0.00 0.00 0.00 0.00 0.00 0.00 0.00 0.00 0.00 0.00 0.00 0.00 0.00 0.00 0.00 0.00 0.00 0.00 0.00 0.00 0.00 0.00 0.00 0.00 0.00 0.00 0.00 0.00 0.00 0.00
0.03 0.02 0.02 0.01 0.01 0.01 0.01 0.00 0.00 0.00 0.00 0.00 0.00 0.00 0.00 0.00 0.00 0.00 0.00 0.00 0.00 0.00 0.00 0.00 0.00 0.00 0.00 0.00 0.00 0.00 0.00 0.00 0.00 0.00 0.00 0.00 0.00 0.00 0.00 0.00 0.00 0.00 0.00 0.00 0.00 0.00 0.00 0.00 0.00
0.05 0.05 0.04 0.02 0.01 0.01 0.01 0.01 0.00 0.00 0.00 0.00 0.00 0.00 0.00 0.00 0.00 0.00 0.00 0.00 0.00 0.00 0.00 0.00 0.00 0.00 0.00 0.00 0.00 0.00 0.00 0.00 0.00 0.00 0.00 0.00 0.00 0.00 0.00 0.00 0.00 0.00 0.00 0.00 0.00 0.00 0.00 0.00 0.00
0.07 0.06 0.03 0.01 0.01 0.01 0.01 0.01 0.00 0.00 0.00 0.00 0.00 0.00 0.00 0.00 0.00 0.00 0.00 0.00 0.00 0.00 0.00 0.00 0.00 0.00 0.00 0.00 0.00 0.00 0.00 0.00 0.00 0.00 0.00 0.00 0.00 0.00 0.00 0.00 0.00 0.00 0.00 0.00 0.00 0.00 0.00 0.00 0.00
0.04 0.03 0.02 0.01 0.01 0.01 0.01 0.00 0.00 0.00 0.00 0.00 0.00 0.00 0.00 0.00 0.00 0.00 0.00 0.00 0.00 0.00 0.00 0.00 0.00 0.00 0.00 0.00 0.00 0.00 0.00 0.00 0.00 0.00 0.00 0.00 0.00 0.00 0.00 0.00 0.00 0.00 0.00 0.00 0.00 0.00 0.00 0.00 0.00
0.02 0.02 0.01 0.00 0.00 0.00 0.00 0.00 0.00 0.00 0.00 0.00 0.00 0.00 0.00 0.00 0.00 0.00 0.00 0.00 0.00 0.00 0.00 0.00 0.00 0.00 0.00 0.00 0.00 0.00 0.00 0.00 0.00 0.00 0.00 0.00 0.00 0.00 0.00 0.00 0.00 0.00 0.00 0.00 0.00 0.00 0.00 0.00 0.00
0.05 0.03 0.02 0.01 0.00 0.00 0.00 0.00 0.00 0.00 0.00 0.00 0.00 0.00 0.00 0.00 0.00 0.00 0.00 0.00 0.00 0.00 0.00 0.00 0.00 0.00 0.00 0.00 0.00 0.00 0.00 0.00 0.00 0.00 0.00 0.00 0.00 0.00 0.00 0.00 0.00 0.00 0.00 0.00 0.00 0.00 0.00 0.00 0.00
0.08 0.05 0.03 0.02 0.01 0.01 0.01 0.00 0.00 0.00 0.00 0.00 0.00 0.00 0.00 0.00 0.00 0.00 0.00 0.00 0.00 0.00 0.00 0.00 0.00 0.00 0.00 0.00 0.00 0.00 0.00 0.00 0.00 0.00 0.00 0.00 0.00 0.00 0.00 0.00 0.00 0.00 0.00 0.00 0.00 0.00 0.00 0.00 0.00
0.08 0.04 0.03 0.03 0.04 0.03 0.02 0.01 0.00 0.00 0.00 0.00 0.00 0.00 0.00 0.00 0.00 0.00 0.00 0.00 0.00 0.00 0.00 0.00 0.00 0.00 0.00 0.00 0.00 0.00 0.00 0.00 0.00 0.00 0.00 0.00 0.00 0.00 0.00 0.00 0.00 0.00 0.00 0.00 0.00 0.00 0.00 0.00 0.00
0.06 0.04 0.04 0.05 0.07 0.08 0.06 0.03 0.01 0.00 0.00 0.00 0.00 0.00 0.00 0.00 0.00 0.00 0.00 0.00 0.00 0.00 0.00 0.00 0.00 0.00 0.00 0.00 0.00 0.00 0.00 0.00 0.00 0.00 0.00 0.00 0.00 0.00 0.00 0.00 0.00 0.00 0.00 0.00 0.00 0.00 0.00 0.00 0.00
0.09 0.08 0.09 0.10 0.14 0.17 0.07 0.03 0.01 0.00 0.00 0.00 0.00 0.00 0.00 0.00 0.00 0.00 0.00 0.00 0.00 0.00 0.00 0.00 0.00 0.00 0.00 0.00 0.00 0.00 0.00 0.00 0.00 0.00 0.00 0.00 0.00 0.00 0.00 0.00 0.00 0.00 0.00 0.00 0.00 0.00 0.00 0.00 0.00
0.13 0.16 0.24 0.27 0.28 0.18 0.04 0.02 0.01 0.00 0.00 0.00 0.00 0.00 0.00 0.00 0.00 0.00 0.00 0.00 0.00 0.00 0.00 0.00 0.00 0.00 0.00 0.00 0.00 0.00 0.00 0.00 0.00 0.00 0.00 0.00 0.00 0.00 0.00 0.00 0.00 0.00 0.00 0.00 0.00 0.00 0.00 0.00 0.00
0.09 0.12 0.18 0.19 0.13 0.05 0.01 0.01 0.00 0.00 0.00 0.00 0.00 0.00 0.00 0.00 0.00 0.00 0.00 0.00 0.00 0.00 0.00 0.00 0.00 0.00 0.00 0.00 0.00 0.00 0.00 0.00 0.00 0.00 0.00 0.00 0.00 0.00 0.00 0.00 0.00 0.00 0.00 0.00 0.00 0.00 0.00 0.00 0.00
0.07 0.10 0.10 0.12 0.10 0.06 0.02 0.01 0.00 0.00 0.00 0.00 0.00 0.00 0.00 0.00 0.00 0.00 0.00 0.00 0.00 0.00 0.00 0.00 0.00 0.00 0.00 0.00 0.00 0.00 0.00 0.00 0.00 0.00 0.00 0.00 0.00 0.00 0.00 0.00 0.00 0.00 0.00 0.00 0.00 0.00 0.00 0.00 0.00
0.05 0.10 0.14 0.23 0.25 0.13 0.04 0.01 0.00 0.00 0.00 0.00 0.00 0.00 0.00 0.00 0.00 0.00 0.00 0.00 0.00 0.00 0.00 0.00 0.00 0.00 0.00 0.00 0.00 0.00 0.00 0.00 0.00 0.00 0.00 0.00 0.00 0.00 0.00 0.00 0.00 0.00 0.00 0.00 0.00 0.01 0.00 0.01 0.01
0.05 0.08 0.15 0.22 0.22 0.14 0.05 0.01 0.00 0.00 0.00 0.00 0.00 0.00 0.00 0.00 0.00 0.00 0.00 0.00 0.00 0.00 0.00 0.00 0.00 0.00 0.00 0.00 0.00 0.00 0.00 0.00 0.00 0.00 0.00 0.00 0.00 0.00 0.00 0.00 0.00 0.00 0.00 0.00 0.01 0.01 0.01 0.01 0.01
0.04 0.04 0.08 0.16 0.18 0.12 0.07 0.02 0.00 0.00 0.00 0.00 0.00 0.00 0.00 0.00 0.00 0.00 0.00 0.00 0.00 0.00 0.00 0.00 0.00 0.00 0.00 0.00 0.00 0.00 0.00 0.00 0.00 0.00 0.00 0.00 0.00 0.00 0.00 0.00 0.00 0.00 0.00 0.00 0.01 0.01 0.01 0.01 0.01
MSLP
1015.89 1016.17 1016.67 1017.35 1018.15 1018.98 1019.75 1020.40 1020.87 1021.17 1021.31 1021.33 1021.28 1021.21 1021.13 1021.08 1021.06 1021.07 1021.10 1021.15 1021.22 1021.32 1021.46 1021.62 1021.80 1022.00 1022.19 1022.36 1022.49 1022.60 1022.67 1022.75 1022.82 1022.92 1023.04 1023.19 1023.33 1023.47 1023.57 1023.64 1023.67 1023.69 1023.71 1023.75 1023.82 1023.94 1024.09 1024.24 1024.38
1016.25 1016.61 1017.20 1017.94 1018.75 1019.54 1020.22 1020.73 1021.04 1021.16 1021.14 1021.03 1020.89 1020.79 1020.74 1020.76 1020.83 1020.94 1021.07 1021.19 1021.31 1021.43 1021.56 1021.71 1021.87 1022.05 1022.24 1022.42 1022.58 1022.72 1022.85 1022.97 1023.10 1023.24 1023.39 1023.55 1023.71 1023.84 1023.94 1024.00 1024.03 1024.05 1024.08 1024.15 1024.26 1024.41 1024.59 1024.75 1024.88
1016.72 1017.15 1017.76 1018.49 1019.26 1019.96 1020.51 1020.86 1021.01 1020.99 1020.84 1020.65 1020.49 1020.40 1020.41 1020.52 1020.69 1020.90 1021.11 1021.28 1021.43 1021.56 1021.67 1021.79 1021.94 1022.11 1022.30 1022.50 1022.70 1022.89 1023.07 1023.24 1023.42 1023.59 1023.76 1023.92 1024.06 1024.18 1024.26 1024.30 1024.33 1024.36 1024.42 1024.52 1024.67 1024.85 1025.05 1025.23 1025.35
1017.28 1017.72 1018.32 1019.00 1019.66 1020.23 1020.63 1020.83 1020.83 1020.69 1020.48 1020.26 1020.12 1020.09 1020.19 1020.39 1020.66 1020.95 1021.21 1021.42 1021.58 1021.69 1021.79 1021.89 1022.03 1022.20 1022.40 1022.63 1022.87 1023.11 1023.34 1023.55 1023.76 1023.94 1024.12 1024.27 1024.39 1024.48 1024.54 1024.57 1024.60 1024.64 1024.73 1024.86 1025.05 1025.27 1025.49 1025.67 1025.77
1017.86 1018.30 1018.84 1019.42 1019.95 1020.36 1020.60 1020.66 1020.56 1020.35 1020.11 1019.92 1019.84 1019.90 1020.10 1020.39 1020.74 1021.08 1021.37 1021.59 1021.74 1021.84 1021.92 1022.01 1022.14 1022.32 1022.55 1022.82 1023.10 1023.37 1023.63 1023.88 1024.09 1024.29 1024.45 1024.59 1024.69 1024.76 1024.80 1024.83 1024.87 1024.93 1025.04 1025.21 1025.43 1025.67 1025.90 1026.07 1026.16
1018.42 1018.83 1019.30 1019.75 1020.13 1020.38 1020.47 1020.41 1020.24 1020.00 1019.79 1019.67 1019.68 1019.84 1020.13 1020.51 1020.91 1021.28 1021.58 1021.79 1021.92 1022.00 1022.06 1022.15 1022.29 1022.49 1022.74 1023.03 1023.34 1023.64 1023.92 1024.17 1024.39 1024.58 1024.74 1024.87 1024.96 1025.03 1025.07 1025.11 1025.16 1025.24 1025.38 1025.57 1025.80 1026.05 1026.28 1026.45 1026.51
1018.93 1019.29 1019.66 1019.98 1020.21 1020.31 1020.28 1020.14 1019.93 1019.71 1019.56 1019.52 1019.64 1019.90 1020.27 1020.71 1021.14 1021.51 1021.80 1021.98 1022.09 1022.15 1022.20 1022.29 1022.44 1022.66 1022.93 1023.24 1023.56 1023.86 1024.14 1024.39 1024.61 1024.79 1024.96 1025.09 1025.20 1025.29 1025.35 1025.41 1025.48 1025.59 1025.74 1025.93 1026.17 1026.41 1026.62 1026.77 1026.82
1019.35 1019.66 1019.93 1020.13 1020.22 1020.21 1020.08 1019.88 1019.66 1019.48 1019.40 1019.46 1019.67 1020.01 1020.45 1020.92 1021.36 1021.72 1021.98 1022.14 1022.22 1022.27 1022.32 1022.42 1022.59 1022.82 1023.10 1023.41 1023.72 1024.01 1024.28 1024.51 1024.72 1024.92 1025.10 1025.26 1025.41 1025.53 1025.64 1025.74 1025.83 1025.95 1026.10 1026.28 1026.49 1026.71 1026.90 1027.02 1027.05
1019.67 1019.92 1020.11 1020.20 1020.19 1020.08 1019.89 1019.67 1019.46 1019.32 1019.30 1019.44 1019.72 1020.12 1020.59 1021.07 1021.51 1021.84 1022.08 1022.21 1022.28 1022.33 1022.40 1022.52 1022.70 1022.94 1023.22 1023.52 1023.80 1024.07 1024.31 1024.53 1024.74 1024.95 1025.16 1025.37 1025.57 1025.75 1025.91 1026.04 1026.16 1026.28 1026.41 1026.57 1026.74 1026.92 1027.08 1027.18 1027.21
1019.89 1020.09 1020.20 1020.21 1020.13 1019.96 1019.74 1019.50 1019.31 1019.20 1019.24 1019.42 1019.74 1020.16 1020.63 1021.11 1021.52 1021.83 1022.05 1022.18 1022.26 1022.32 1022.41 1022.55 1022.75 1023.00 1023.27 1023.55 1023.80 1024.03 1024.24 1024.44 1024.65 1024.88 1025.14 1025.40 1025.67 1025.91 1026.12 1026.29 1026.43 1026.54 1026.64 1026.76 1026.88 1027.02 1027.14 1027.23 1027.27
1019.99 1020.13 1020.19 1020.16 1020.04 1019.84 1019.61 1019.38 1019.19 1019.11 1019.16 1019.35 1019.67 1020.08 1020.53 1020.97 1021.35 1021.65 1021.87 1022.01 1022.11 1022.21 1022.34 1022.52 1022.74 1022.99 1023.25 1023.50 1023.72 1023.92 1024.10 1024.29 1024.50 1024.75 1025.04 1025.36 1025.68 1025.98 1026.24 1026.43 1026.57 1026.67 1026.74 1026.82 1026.90 1027.00 1027.10 1027.19 1027.25
1019.94 1020.06 1020.09 1020.03 1019.91 1019.72 1019.50 1019.27 1019.10 1019.02 1019.05 1019.21 1019.49 1019.85 1020.26 1020.66 1021.01 1021.30 1021.53 1021.70 1021.85 1022.00 1022.18 1022.40 1022.65 1022.91 1023.17 1023.39 1023.59 1023.75 1023.91 1024.08 1024.30 1024.57 1024.89 1025.24 1025.61 1025.95 1026.23 1026.44 1026.58 1026.66 1026.71 1026.74 1026.80 1026.87 1026.97 1027.08 1027.18
1019.74 1019.83 1019.86 1019.82 1019.72 1019.57 1019.38 1019.18 1019.01 1018.91 1018.91 1019.01 1019.21 1019.50 1019.84 1020.19 1020.52 1020.81 1021.06 1021.27 1021.48 1021.69 1021.93 1022.20 1022.48 1022.76 1023.02 1023.24 1023.41 1023.56 1023.70 1023.87 1024.08 1024.35 1024.68 1025.06 1025.43 1025.79 1026.08 1026.30 1026.43 1026.50 1026.54 1026.56 1026.60 1026.68 1026.79 1026.93 1027.08
1019.37 1019.45 1019.50 1019.51 1019.47 1019.38 1019.24 1019.07 1018.91 1018.78 1018.72 1018.74 1018.86 1019.06 1019.32 1019.62 1019.92 1020.21 1020.49 1020.75 1021.01 1021.29 1021.59 1021.90 1022.23 1022.53 1022.80 1023.03 1023.21 1023.35 1023.49 1023.65 1023.85 1024.11 1024.44 1024.80 1025.17 1025.51 1025.80 1026.01 1026.15 1026.22 1026.26 1026.30 1026.37 1026.47 1026.62 1026.80 1026.99
1018.87 1018.95 1019.04 1019.12 1019.16 1019.14 1019.07 1018.94 1018.78 1018.62 1018.50 1018.44 1018.47 1018.58 1018.76 1019.01 1019.28 1019.57 1019.87 1020.17 1020.48 1020.81 1021.16 1021.51 1021.87 1022.21 1022.51 1022.75 1022.95 1023.11 1023.26 1023.41 1023.61 1023.85 1024.15 1024.48 1024.82 1025.14 1025.42 1025.62 1025.77 1025.87 1025.94 1026.02 1026.12 1026.27 1026.47 1026.69 1026.93
1018.28 1018.39 1018.53 1018.69 1018.82 1018.89 1018.88 1018.79 1018.64 1018.44 1018.26 1018.12 1018.06 1018.09 1018.20 1018.39 1018.64 1018.92 1019.23 1019.55 1019.89 1020.25 1020.63 1021.02 1021.40 1021.77 1022.11 1022.39 1022.62 1022.81 1022.97 1023.14 1023.32 1023.54 1023.80 1024.10 1024.40 1024.69 1024.94 1025.16 1025.32 1025.46 1025.59 1025.73 1025.90 1026.11 1026.35 1026.61 1026.88
1017.70 1017.84 1018.05 1018.29 1018.51 1018.65 1018.70 1018.63 1018.47 1018.24 1018.00 1017.79 1017.64 1017.60 1017.65 1017.79 1018.00 1018.27 1018.57 1018.89 1019.23 1019.60 1019.98 1020.39 1020.79 1021.19 1021.56 1021.89 1022.17 1022.40 1022.59 1022.77 1022.95 1023.15 1023.38 1023.63 1023.89 1024.15 1024.40 1024.63 1024.84 1025.03 1025.23 1025.44 1025.68 1025.95 1026.23 1026.52 1026.79
1017.23 1017.42 1017.70 1018.00 1018.28 1018.47 1018.54 1018.47 1018.28 1018.00 1017.70 1017.42 1017.21 1017.10 1017.10 1017.19 1017.37 1017.61 1017.88 1018.18 1018.50 1018.84 1019.22 1019.62 1020.03 1020.45 1020.86 1021.23 1021.56 1021.84 1022.07 1022.27 1022.46 1022.64 1022.84 1023.06 1023.29 1023.54 1023.79 1024.05 1024.31 1024.57 1024.84 1025.12 1025.43 1025.74 1026.05 1026.35 1026.61
1016.96 1017.21 1017.54 1017.88 1018.18 1018.37 1018.41 1018.30 1018.05 1017.71 1017.34 1016.99 1016.72 1016.56 1016.52 1016.58 1016.72 1016.91 1017.15 1017.40 1017.68 1017.99 1018.33 1018.70 1019.11 1019.55 1019.98 1020.40 1020.77 1021.10 1021.37 1021.60 1021.79 1021.97 1022.16 1022.36 1022.59 1022.83 1023.11 1023.40 1023.71 1024.03 1024.37 1024.72 1025.07 1025.42 1025.74 1026.03 1026.27
1016.92 1017.24 1017.60 1017.95 1018.23 1018.36 1018.33 1018.13 1017.79 1017.35 1016.90 1016.49 1016.16 1015.96 1015.88 1015.90 1016.01 1016.16 1016.35 1016.55 1016.78 1017.03 1017.32 1017.67 1018.06 1018.49 1018.95 1019.39 1019.81 1020.18 1020.48 1020.74 1020.95 1021.13 1021.32 1021.52 1021.75 1022.02 1022.32 1022.66 1023.02 1023.39 1023.79 1024.18 1024.56 1024.92 1025.24 1025.51 1025.72
1017.11 1017.48 1017.86 1018.18 1018.39 1018.42 1018.26 1017.93 1017.46 1016.91 1016.37 1015.89 1015.52 1015.27 1015.16 1015.16 1015.23 1015.35 1015.49 1015.63 1015.80 1015.99 1016.23 1016.54 1016.91 1017.34 1017.80 1018.26 1018.70 1019.09 1019.42 1019.70 1019.92 1020.12 1020.31 1020.53 1020.78 1021.07 1021.41 1021.79 1022.19 1022.61 1023.03 1023.45 1023.83 1024.19 1024.50 1024.75 1024.94
1017.41 1017.83 1018.22 1018.49 1018.59 1018.48 1018.17 1017.68 1017.06 1016.39 1015.76 1015.21 1014.79 1014.52 1014.39 1014.37 1014.41 1014.49 1014.58 1014.68 1014.79 1014.93 1015.12 1015.39 1015.73 1016.14 1016.59 1017.05 1017.49 1017.89 1018.23 1018.51 1018.74 1018.95 1019.16 1019.40 1019.68 1020.01 1020.38 1020.79 1021.23 1021.67 1022.11 1022.52 1022.90 1023.24 1023.53 1023.77 1023.95
1017.67 1018.15 1018.53 1018.73 1018.71 1018.46 1017.99 1017.34 1016.58 1015.80 1015.08 1014.48 1014.03 1013.75 1013.60 1013.56 1013.59 1013.64 1013.69 1013.73 1013.79 1013.88 1014.03 1014.26 1014.57 1014.95 1015.38 1015.83 1016.26 1016.64 1016.97 1017.24 1017.47 1017.68 1017.90 1018.16 1018.46 1018.82 1019.23 1019.68 1020.14 1020.59 1021.02 1021.42 1021.79 1022.10 1022.38 1022.62 1022.81
1017.75 1018.29 1018.65 1018.79 1018.67 1018.28 1017.67 1016.88 1016.01 1015.15 1014.37 1013.74 1013.29 1013.00 1012.86 1012.81 1012.82 1012.84 1012.85 1012.85 1012.87 1012.91 1013.02 1013.21 1013.49 1013.84 1014.23 1014.65 1015.04 1015.39 1015.68 1015.92 1016.13 1016.34 1016.56 1016.83 1017.17 1017.56 1018.00 1018.47 1018.94 1019.40 1019.83 1020.21 1020.56 1020.86 1021.14 1021.39 1021.61
1017.55 1018.13 1018.49 1018.58 1018.38 1017.89 1017.17 1016.30 1015.36 1014.46 1013.67 1013.05 1012.61 1012.35 1012.21 1012.17 1012.16 1012.15 1012.12 1012.08 1012.05 1012.05 1012.12 1012.27 1012.51 1012.81 1013.17 1013.53 1013.87 1014.17 1014.41 1014.61 1014.79 1014.97 1015.19 1015.47 1015.82 1016.23 1016.70 1017.19 1017.69 1018.15 1018.58 1018.96 1019.29 1019.59 1019.88 1020.15 1020.42
1017.03 1017.64 1018.01 1018.07 1017.81 1017.27 1016.50 1015.59 1014.65 1013.76 1013.01 1012.44 1012.05 1011.82 1011.71 1011.66 1011.64 1011.59 1011.52 1011.43 1011.35 1011.30 1011.32 1011.42 1011.62 1011.88 1012.18 1012.49 1012.77 1013.01 1013.19 1013.34 1013.47 1013.62 1013.82 1014.10 1014.46 1014.89 1015.38 1015.90 1016.41 1016.89 1017.33 1017.71 1018.05 1018.36 1018.67 1018.97 1019.28
1016.26 1016.90 1017.26 1017.31 1017.03 1016.47 1015.70 1014.81 1013.91 1013.09 1012.42 1011.92 1011.60 1011.43 1011.35 1011.31 1011.26 1011.18 1011.05 1010.90 1010.75 1010.64 1010.60 1010.65 1010.80 1011.01 1011.26 1011.51 1011.73 1011.90 1012.02 1012.11 1012.19 1012.30 1012.48 1012.74 1013.10 1013.55 1014.06 1014.61 1015.15 1015.65 1016.11 1016.51 1016.87 1017.21 1017.54 1017.87 1018.23
1015.40 1016.04 1016.39 1016.41 1016.12 1015.57 1014.83 1014.00 1013.18 1012.46 1011.90 1011.51 1011.28 1011.17 1011.12 1011.09 1011.01 1010.87 1010.68 1010.45 1010.22 1010.04 1009.93 1009.92 1010.01 1010.17 1010.36 1010.56 1010.72 1010.84 1010.90 1010.94 1010.97 1011.04 1011.19 1011.43 1011.79 1012.24 1012.77 1013.34 1013.91 1014.44 1014.93 1015.37 1015.76 1016.12 1016.48 1016.84 1017.22
1014.65 1015.24 1015.54 1015.53 1015.22 1014.67 1013.97 1013.22 1012.50 1011.90 1011.46 1011.18 1011.05 1011.00 1010.99 1010.95 1010.84 1010.65 1010.37 1010.06 1009.74 1009.47 1009.28 1009.20 1009.22 1009.32 1009.47 1009.62 1009.74 1009.81 1009.83 1009.82 1009.82 1009.85 1009.96 1010.19 1010.53 1010.98 1011.51 1012.10 1012.69 1013.26 1013.79 1014.26 1014.69 1015.08 1015.45 1015.83 1016.23
1014.17 1014.67 1014.88 1014.80 1014.45 1013.89 1013.22 1012.53 1011.91 1011.42 1011.09 1010.93 1010.88 1010.90 1010.91 1010.86 1010.71 1010.45 1010.09 1009.68 1009.26 1008.89 1008.61 1008.45 1008.40 1008.45 1008.55 1008.67 1008.76 1008.81 1008.81 1008.78 1008.74 1008.75 1008.83 1009.03 1009.34 1009.78 1010.30 1010.89 1011.50 1012.10 1012.65 1013.16 1013.61 1014.02 1014.41 1014.79 1015.18
Thickness
5738 5743 5748 5747 5735 5722 5712 5715 5720 5718 5721 5724 5723 5722 5721 5719 5715 5708 5712 5716 5713 5709 5705 5700 5698 5697 5695 5694 5693 5691 5690 5689 5688 5687 5686 5686 5685 5685 5684 5684 5683 5683 5683 5682 5682 5681 5681 5680 5680
5735 5741 5742 5735 5720 5708 5709 5717 5716 5720 5722 5721 5721 5721 5720 5720 5717 5713 5712 5712 5711 5708 5704 5701 5697 5696 5694 5693 5692 5690 5689 5688 5687 5686 5685 5684 5683 5683 5682 5682 5682 5681 5681 5680 5680 5679 5678 5678 5678
5732 5736 5729 5721 5711 5709 5709 5716 5719 5719 5720 5720 5719 5720 5720 5718 5715 5714 5714 5711 5709 5706 5703 5699 5697 5695 5693 5692 5691 5689 5688 5687 5686 5685 5683 5682 5682 5681 5681 5680 5680 5679 5679 5678 5678 5677 5676 5676 5675
5727 5726 5721 5713 5704 5710 5714 5718 5719 5716 5715 5718 5719 5717 5717 5716 5716 5715 5713 5709 5708 5704 5702 5698 5695 5694 5692 5691 5689 5688 5687 5686 5685 5683 5682 5681 5680 5679 5679 5678 5678 5677 5677 5676 5676 5675 5674 5673 5673
5720 5714 5704 5700 5703 5710 5714 5717 5717 5715 5716 5717 5717 5717 5715 5715 5716 5714 5711 5708 5706 5703 5700 5697 5694 5692 5691 5689 5688 5687 5685 5684 5683 5682 5681 5679 5678 5677 5677 5676 5676 5675 5675 5674 5673 5672 5671 5671 5670
5705 5703 5693 5693 5700 5706 5712 5715 5715 5715 5715 5714 5715 5715 5715 5713 5713 5711 5709 5707 5704 5701 5699 5696 5693 5691 5690 5688 5687 5685 5684 5683 5681 5680 5679 5678 5676 5675 5675 5674 5673 5673 5672 5671 5671 5670 5669 5668 5668
5693 5690 5689 5692 5695 5700 5707 5712 5713 5714 5713 5715 5718 5714 5714 5711 5711 5709 5707 5705 5702 5700 5697 5695 5692 5690 5688 5687 5685 5684 5682 5681 5680 5678 5677 5676 5674 5673 5672 5672 5671 5670 5669 5668 5668 5667 5666 5665 5665
5690 5685 5682 5688 5691 5697 5706 5708 5712 5712 5714 5716 5716 5714 5714 5713 5709 5706 5703 5702 5700 5698 5696 5694 5692 5690 5688 5685 5684 5682 5681 5679 5678 5676 5675 5674 5672 5671 5670 5669 5668 5668 5667 5666 5665 5664 5663 5663 5662
5682 5675 5677 5685 5689 5696 5701 5702 5706 5710 5710 5709 5711 5713 5712 5712 5706 5701 5699 5697 5696 5695 5695 5693 5691 5690 5688 5685 5682 5680 5679 5677 5676 5674 5673 5671 5671 5669 5667 5667 5666 5665 5664 5663 5662 5661 5661 5660 5659
5671 5668 5680 5688 5692 5695 5696 5699 5702 5703 5704 5705 5707 5706 5705 5704 5702 5700 5698 5697 5696 5694 5693 5692 5691 5689 5687 5684 5682 5680 5678 5676 5675 5673 5671 5670 5669 5668 5666 5664 5663 5662 5661 5660 5659 5659 5658 5658 5657
5663 5668 5678 5681 5685 5688 5690 5693 5698 5699 5701 5708 5710 5708 5701 5699 5699 5699 5699 5699 5697 5696 5693 5692 5690 5688 5686 5684 5682 5680 5678 5676 5674 5673 5671 5669 5667 5666 5664 5663 5661 5660 5659 5659 5657 5656 5656 5656 5655
5654 5663 5670 5676 5676 5678 5683 5688 5691 5697 5705 5710 5712 5709 5701 5698 5699 5700 5700 5699 5697 5695 5694 5691 5689 5687 5685 5683 5682 5680 5678 5676 5674 5672 5670 5669 5667 5665 5664 5662 5661 5659 5658 5657 5656 5655 5654 5653 5652
5646 5654 5660 5666 5668 5672 5675 5680 5686 5695 5704 5705 5705 5703 5702 5702 5702 5702 5702 5699 5697 5695 5694 5692 5689 5686 5684 5683 5681 5679 5678 5676 5674 5672 5670 5669 5667 5665 5664 5662 5660 5659 5657 5656 5655 5654 5652 5651 5650
5642 5646 5652 5657 5660 5664 5666 5674 5678 5695 5700 5698 5699 5701 5703 5703 5703 5702 5700 5699 5698 5696 5694 5692 5689 5686 5684 5682 5681 5679 5677 5675 5673 5672 5670 5668 5667 5665 5663 5661 5659 5658 5656 5655 5653 5653 5651 5649 5647
5630 5632 5639 5646 5651 5656 5658 5665 5678 5694 5694 5694 5697 5700 5701 5702 5702 5702 5703 5702 5700 5698 5695 5693 5690 5686 5684 5682 5680 5679 5677 5675 5673 5672 5670 5668 5666 5665 5662 5661 5659 5657 5655 5653 5651 5650 5648 5647 5645
5616 5619 5626 5642 5644 5648 5646 5661 5684 5690 5687 5691 5697 5699 5699 5701 5702 5704 5704 5703 5701 5699 5696 5694 5690 5687 5685 5682 5680 5678 5677 5675 5673 5672 5670 5668 5666 5664 5662 5660 5658 5656 5654 5652 5650 5649 5647 5646 5644
5603 5611 5623 5633 5639 5641 5642 5657 5677 5682 5681 5687 5694 5697 5698 5700 5702 5704 5704 5703 5701 5700 5698 5695 5692 5689 5686 5683 5680 5679 5677 5675 5673 5672 5670 5668 5666 5663 5661 5660 5658 5655 5653 5651 5649 5647 5646 5644 5642
5605 5611 5618 5625 5632 5632 5637 5652 5667 5673 5674 5683 5691 5695 5697 5699 5703 5705 5704 5703 5701 5700 5698 5696 5693 5690 5686 5682 5680 5678 5676 5675 5673 5672 5671 5669 5666 5663 5661 5659 5657 5654 5652 5650 5648 5646 5643 5642 5640
5608 5608 5613 5622 5625 5623 5632 5644 5658 5668 5669 5676 5685 5691 5694 5699 5704 5704 5703 5702 5700 5699 5698 5697 5694 5691 5687 5684 5682 5680 5678 5676 5674 5673 5671 5669 5667 5664 5661 5659 5657 5654 5652 5650 5648 5645 5642 5638 5635
5592 5596 5604 5609 5611 5613 5623 5636 5652 5661 5668 5675 5682 5688 5693 5697 5700 5701 5701 5700 5700 5700 5699 5698 5696 5694 5691 5689 5687 5684 5681 5679 5677 5674 5672 5670 5667 5665 5662 5659 5657 5654 5651 5649 5646 5643 5640 5637 5633
5582 5590 5597 5596 5595 5599 5605 5624 5646 5659 5665 5672 5679 5686 5692 5695 5698 5701 5701 5701 5701 5701 5701 5700 5699 5697 5694 5691 5687 5683 5681 5679 5678 5676 5674 5671 5668 5666 5663 5660 5657 5655 5652 5650 5646 5642 5639 5636 5632
5578 5590 5587 5583 5580 5588 5592 5607 5648 5658 5663 5670 5677 5683 5690 5695 5697 5700 5701 5702 5702 5703 5702 5701 5700 5698 5696 5691 5688 5686 5685 5685 5685 5682 5678 5674 5670 5667 5664 5661 5658 5655 5653 5650 5647 5642 5639 5635 5632
5576 5580 5576 5573 5572 5573 5581 5585 5634 5651 5657 5673 5680 5684 5689 5692 5694 5697 5700 5701 5703 5702 5700 5700 5699 5698 5696 5693 5691 5688 5688 5689 5687 5684 5680 5676 5672 5668 5665 5661 5659 5656 5653 5650 5646 5642 5638 5635 5633
5564 5561 5560 5559 5556 5558 5583 5579 5617 5647 5663 5673 5679 5682 5686 5689 5691 5694 5697 5698 5699 5700 5698 5697 5697 5697 5696 5694 5692 5690 5690 5689 5686 5684 5682 5678 5675 5671 5666 5662 5659 5656 5653 5650 5646 5642 5638 5634 5631
5550 5547 5543 5545 5547 5565 5590 5580 5618 5654 5665 5669 5673 5678 5682 5684 5686 5689 5692 5694 5695 5695 5696 5695 5695 5696 5695 5693 5691 5691 5691 5689 5687 5685 5682 5679 5676 5673 5670 5664 5660 5657 5654 5650 5645 5641 5638 5634 5630
5551 5550 5548 5553 5560 5576 5573 5582 5627 5645 5654 5660 5665 5670 5673 5676 5679 5683 5687 5689 5691 5691 5691 5691 5692 5693 5693 5692 5691 5691 5689 5687 5687 5686 5683 5680 5678 5676 5672 5665 5661 5657 5653 5648 5644 5640 5636 5632 5629
5544 5542 5553 5545 5543 5551 5565 5590 5616 5626 5636 5646 5652 5657 5661 5666 5670 5674 5678 5681 5684 5685 5686 5687 5688 5689 5690 5690 5689 5688 5687 5685 5686 5684 5681 5679 5678 5675 5670 5665 5660 5655 5651 5646 5642 5638 5635 5630 5627
5543 5542 5533 5529 5536 5544 5561 5580 5609 5623 5631 5637 5641 5646 5653 5658 5661 5665 5669 5672 5675 5678 5679 5680 5681 5684 5685 5684 5684 5685 5684 5683 5682 5680 5678 5677 5676 5672 5667 5663 5658 5653 5648 5643 5639 5636 5632 5628 5625
5530 5530 5530 5529 5532 5542 5553 5585 5621 5626 5628 5630 5636 5641 5646 5649 5653 5656 5658 5661 5664 5667 5669 5670 5672 5674 5676 5677 5678 5679 5679 5679 5677 5675 5675 5673 5671 5667 5663 5660 5655 5650 5646 5641 5636 5633 5629 5625 5622
5531 5534 5531 5526 5528 5535 5547 5578 5612 5613 5616 5618 5622 5627 5631 5636 5640 5644 5647 5649 5651 5654 5657 5660 5663 5666 5668 5670 5670 5672 5672 5672 5671 5671 5671 5668 5665 5662 5659 5654 5650 5646 5642 5638 5633 5630 5625 5622 5619